User: anonymous   Login
Location: Unspecified
(0.0000°N, 0.0000°E)
Time: 07:05:20
(UTC+00:00)
Language:

SEEDS - Orbit

View from above orbital plane
View from above orbital plane
View from above satellite
View from above satellite

Ground track
Ground track

The orbit data is extracted from the following two-line orbital elements,

1 32791U 08021J   19167.75752263 +.00000324 +00000-0 +38285-4 0  9993
2 32791 097.5275 173.5351 0011874 241.2432 118.7595 14.90819817603747
Epoch (UTC): 16 June 2019 18:10:49
Eccentricity: 0.0011874
inclination: 97.5275°
perigee height: 587 km
apogee height: 603 km
right ascension of ascending node: 173.5351°
argument of perigee: 241.2432°
revolutions per day: 14.90819817
mean anomaly at epoch: 118.7595°
orbit number at epoch: 60374

The dashed part of the orbit path shows where the satellite is in the earth's shadow,  

DLR